Showing default

HYPERFIELD-1A, 60562

Orbit data source: Space-Track

HYPERFIELD-1A, 60562 is a payload satellite owned by Kuva Space (FI) in SSO that was launched on Fri, 16 Aug 2024 UTC via an FALCON 9 launch vehicle from the Air Force Western Test Range (AFWTR). Payload-class satellites include a variety of spacecraft equipped with specific instruments for various scientific and technological missions. These include communications satellites like Starlink; space stations such as the ISS; scientific satellites like the Hubble; Earth observation satellites from companies like Planet Labs, Umbra, and HawkEye 360; GPS; miniature CubeSats for education and research; and military/defense satellites.

Loading next visibility...
Identifier
60562, 2024-149CY
Orbit
SSO
Country
Flag of FIFI / FIN
Related business
Manufacturer
Kuva Space
Mission
Operational Commercial Imaging
Bus & Motor
CUBESAT 6U, Unknown motor
Mass
12 kg wet, 12 kg dry
Launch date (UTC)
2024-08-16 (1 year ago)
Launch vehicle
FALCON 9
Launch site
Air Force Western Test Range (AFWTR)
Object type
Payload
Rocket body
Debris
Shape & HBR
Box + 2 Pan, 0.2 m
Radar Cross Section
0.092 m², Medium (>0.1 m² and < 1m²)

Expand to show TLE details & history
Last TLE update: 7 hours ago

TLE from 7 hours ago
0 HYPERFIELD-1A
1 60562U 24149CY  25353.65939848  .00005120  00000-0  18879-3 0  9993
2 60562  97.3987  69.9322 0004510 214.4613 145.6334 15.28239512 74595
Epoch: 2025-12-19T15:49Z
TLE epoch observation values (Epoch: 2025-12-19T15:49:32.028Z)
Latitude
-0.00011°
Longitude
104.05139°
Altitude
486.731 km
Speed
7.62 km/s
True Right ascension
04h 39m 43s
True Declination
0° 00' 00"
Sunlit
Object was in full shadow at epoch
Visualization orbit readout
Latitude
Unknown
Longitude
Unknown
Altitude
Unknown
Speed
Unknown
Apparent Right ascension
Unknown
Apparent Declination
Unknown
Sunlit
N/A
Visualization observer readout
Local Sidereal Time
21:34:21
Azimuth
Unknown
Elevation
Unknown
Doppler factor
Unknown
Orbital elements
Apogee altitude
481.122 km
Perigee altitude
474.937 km
Semi-major axis
6,856.167 km
Eccentricity
0.00045
Inclination
97.3987°
RAAN
69.9322°
Arg. of periapsis
214.4613°
True anomaly
145.66256°
Mean anomaly
145.6334°
Eccentric anomaly
145.64798°
Mean motion
3.82315 °/min
Orbital period
94.16 mins
BSTAR
0.00018879
Loading maneuver chart data...
Computing Atmospheric mass density...
Loading historical data...
Loading historical data...
Loading historical data...
Loading historical data...
Loading historical data...
Loading historical data...
Loading historical data...

Documentation

Showing up to 5 results
|